{"data":{"norad_id":41862,"epoch":"2026-05-24T15:34:22.779264Z","epoch_age_seconds":98611,"freshness":"FRESH","line1":"1 41862U 16069D   26144.64887476  .00000014  00000+0  00000+0 0  9993","line2":"2 41862  55.4835 101.7326 0004639 315.3959  44.5266  1.70473997 59244","mean_motion":1.70473997,"eccentricity":0.0004639,"inclination_deg":55.4835,"raan_deg":101.7326,"arg_perigee_deg":315.3959,"mean_anomaly_deg":44.5266,"bstar":0,"rev_number":5924,"period_min":844.70360602855,"perigee_km":23208.4518162,"apogee_km":23235.914993472,"semimajor_km":29600.320404836,"source":"CELESTRAK","updated_at":"2026-05-25T13:38:24.059148Z"}}